Location: �bnet
(46.9957°N, 8.4908°E)
Time: 01:24:22
(UTC+00:00)

H-2A R/B - Pass Details

Date: 11 May 2021
Orbit: 573 x 598 km, 98.2° (Epoch: 23 June)

Event Time Altitude Azimuth Distance (km) Brightness Sun altitude
Rises 21:11:14 0° 16° (NNE) 2,847 7.6 -18.5°
Reaches altitude 10° 21:13:26 10° 19° (NNE) 1,937 6.6 -18.7°
Maximum altitude 21:17:37 66° 102° (ESE) 648 3.4 -19.1°
Enters shadow 21:18:40 47° 164° (SSE) 792 3.6 -19.2°
